Погода в Гуантанамо

Куба     20°08′11″N   75°12′47″W
темп.,
°C
ветер,
м/с
пор.,
м/с
влажн.,
%
обл.,
%
осадки,
мм/ч
давл.,
гПа
погр.,
м
27 июня, пн
пн2723:00+23всв1192100 3.3 101713
02:00+22вюв1192100 4.2 101614
05:00+22в119395 0.0 101612
08:00+24ююв0189100 0.0 1017116
11:00+28ююз216599 0.0 1017943
14:00+30ю2256100 0.1 10151478
17:00+28ююв2274100 4.6 1015519
20:00+23юв1189100 9.3 101617
28 июня, вт
вт2823:00+22с22938 5.4 101830
02:00+21ссв119355 5.8 101612
05:00+21св119127 0.0 101611
08:00+24ссв1184100 0.0 101794
11:00+29ююв11589 0.0 1018967
14:00+32ююз234728 0.0 10171652
17:00+29юв336653 0.9 1016650
20:00+25зюз118637 3.1 101811
29 июня, ср
ср2923:00+23ссз119165 1.2 101911
02:00+22св119143 1.2 101814
05:00+22ссв2292100 0.0 101817
08:00+24с2287100 0.0 101995
11:00+30в465775 0.0 10191492
14:00+32вюв344669 0.0 10172122
17:00+31вюв235279 0.0 10171290
20:00+24с117927 0.1 101829
30 июня, чт
чт3023:00+22ссв22888 0.0 101938
02:00+22с22919 0.0 101826
05:00+21с229325 0.0 101727
08:00+24ссв148150 0.0 1018244
11:00+30всв465060 0.0 10171518
14:00+32всв454142 0.0 10161971
17:00+30всв55496 0.0 10151367
20:00+24св34765 0.0 101693
1 июля, пт
пт123:00+22ссв239011 0.0 101766
02:00+22с119280 0.0 101623
05:00+21с119356 0.0 101518
08:00+25ссв148066 0.0 1016276
11:00+30в575446 0.0 10161613
14:00+32всв454674 0.0 10142192
17:00+30всв455324 0.0 10131148
20:00+24св237672 0.1 101563